Time,TemperatureF,DewpointF,PressureIn,WindDirection,WindDirectionDegrees,WindSpeedMPH,WindSpeedGustMPH,Humidity,HourlyPrecipIn,Conditions,Clouds,dailyrainin,SoftwareType,DateUTC
2013-09-10 00:10:00,70.3,67.0,30.11,South,177,0.0,0.0,88,0.00,,,0.00,weatherlink.com 1.10,2013-09-10 04:10:00,
2013-09-10 00:25:00,70.1,67.0,30.11,South,177,0.0,0.0,88,0.00,,,0.00,weatherlink.com 1.10,2013-09-10 04:25:00,
2013-09-10 00:40:00,70.1,67.0,30.11,South,177,0.0,0.0,89,0.00,,,0.00,weatherlink.com 1.10,2013-09-10 04:40:00,
2013-09-10 00:55:00,69.9,67.0,30.11,South,177,0.0,0.0,89,0.00,,,0.00,weatherlink.com 1.10,2013-09-10 04:55:00,
2013-09-10 01:10:00,69.8,67.0,30.11,South,177,0.0,0.0,90,0.00,,,0.00,weatherlink.com 1.10,2013-09-10 05:10:00,
2013-09-10 01:25:00,69.6,67.0,30.12,South,177,0.0,0.0,90,0.00,,,0.00,weatherlink.com 1.10,2013-09-10 05:25:00,
2013-09-10 01:40:00,69.4,67.0,30.11,South,177,0.0,0.0,91,0.00,,,0.00,weatherlink.com 1.10,2013-09-10 05:40:00,
2013-09-10 01:55:00,69.3,67.0,30.12,South,177,0.0,0.0,91,0.00,,,0.00,weatherlink.com 1.10,2013-09-10 05:55:00,
2013-09-10 02:10:00,69.1,67.0,30.13,South,177,0.0,0.0,92,0.00,,,0.00,weatherlink.com 1.10,2013-09-10 06:10:00,
2013-09-10 02:25:00,68.9,67.0,30.13,South,177,0.0,0.0,92,0.00,,,0.00,weatherlink.com 1.10,2013-09-10 06:25:00,
2013-09-10 02:40:00,68.6,66.0,30.13,South,177,0.0,0.0,92,0.00,,,0.00,weatherlink.com 1.10,2013-09-10 06:40:00,
2013-09-10 02:55:00,68.4,66.0,30.13,South,177,0.0,0.0,93,0.00,,,0.00,weatherlink.com 1.10,2013-09-10 06:55:00,
2013-09-10 03:10:00,68.3,66.0,30.14,South,177,0.0,0.0,93,0.00,,,0.00,weatherlink.com 1.10,2013-09-10 07:10:00,
2013-09-10 03:25:00,68.1,66.0,30.14,South,177,0.0,0.0,93,0.00,,,0.00,weatherlink.com 1.10,2013-09-10 07:25:00,
2013-09-10 03:40:00,67.9,66.0,30.14,South,177,0.0,0.0,93,0.00,,,0.00,weatherlink.com 1.10,2013-09-10 07:40:00,
2013-09-10 03:55:00,67.8,66.0,30.14,South,177,0.0,0.0,94,0.00,,,0.00,weatherlink.com 1.10,2013-09-10 07:55:00,
2013-09-10 04:10:00,67.4,65.0,30.14,South,177,0.0,0.0,93,0.00,,,0.00,weatherlink.com 1.10,2013-09-10 08:10:00,
2013-09-10 04:25:00,67.3,66.0,30.14,South,177,0.0,0.0,94,0.00,,,0.00,weatherlink.com 1.10,2013-09-10 08:25:00,
2013-09-10 04:40:00,67.1,65.0,30.14,South,177,0.0,0.0,94,0.00,,,0.00,weatherlink.com 1.10,2013-09-10 08:40:00,
2013-09-10 04:55:00,67.1,66.0,30.14,South,177,0.0,0.0,95,0.00,,,0.00,weatherlink.com 1.10,2013-09-10 08:55:00,
2013-09-10 05:10:00,66.9,66.0,30.14,South,177,0.0,0.0,95,0.00,,,0.00,weatherlink.com 1.10,2013-09-10 09:10:00,
2013-09-10 05:25:00,66.6,65.0,30.14,South,177,0.0,0.0,95,0.00,,,0.00,weatherlink.com 1.10,2013-09-10 09:25:00,
2013-09-10 05:40:00,66.8,65.0,30.14,South,177,0.0,0.0,95,0.00,,,0.00,weatherlink.com 1.10,2013-09-10 09:40:00,
2013-09-10 05:55:00,66.6,65.0,30.15,South,177,0.0,0.0,95,0.00,,,0.00,weatherlink.com 1.10,2013-09-10 09:55:00,
2013-09-10 06:10:00,66.4,65.0,30.15,South,177,0.0,0.0,96,0.00,,,0.00,weatherlink.com 1.10,2013-09-10 10:10:00,
2013-09-10 06:25:00,66.3,65.0,30.16,South,177,0.0,0.0,96,0.00,,,0.00,weatherlink.com 1.10,2013-09-10 10:25:00,
2013-09-10 06:40:00,66.1,65.0,30.16,South,177,0.0,0.0,96,0.00,,,0.00,weatherlink.com 1.10,2013-09-10 10:40:00,
2013-09-10 06:55:00,66.1,65.0,30.17,South,177,0.0,0.0,96,0.00,,,0.00,weatherlink.com 1.10,2013-09-10 10:55:00,
2013-09-10 07:10:00,66.0,65.0,30.17,South,177,0.0,0.0,96,0.00,,,0.00,weatherlink.com 1.10,2013-09-10 11:10:00,
2013-09-10 07:25:00,66.0,65.0,30.18,South,177,0.0,0.0,96,0.00,,,0.00,weatherlink.com 1.10,2013-09-10 11:25:00,
2013-09-10 07:40:00,66.1,65.0,30.18,South,177,0.0,0.0,96,0.00,,,0.00,weatherlink.com 1.10,2013-09-10 11:40:00,
2013-09-10 07:55:00,66.6,66.0,30.18,South,177,0.0,0.0,97,0.00,,,0.00,weatherlink.com 1.10,2013-09-10 11:55:00,
2013-09-10 08:10:00,67.1,66.0,30.19,South,177,0.0,0.0,97,0.00,,,0.00,weatherlink.com 1.10,2013-09-10 12:10:00,
2013-09-10 08:25:00,67.9,67.0,30.19,South,177,0.0,0.0,98,0.00,,,0.00,weatherlink.com 1.10,2013-09-10 12:25:00,
2013-09-10 08:40:00,68.9,68.0,30.19,South,177,0.0,0.0,98,0.00,,,0.00,weatherlink.com 1.10,2013-09-10 12:40:00,
2013-09-10 08:56:00,70.3,70.0,30.20,South,177,0.0,0.0,99,0.00,,,0.00,weatherlink.com 1.10,2013-09-10 12:56:00,
2013-09-10 09:11:00,71.1,71.0,30.19,South,177,0.0,0.0,98,0.00,,,0.00,weatherlink.com 1.10,2013-09-10 13:11:00,
2013-09-10 09:26:00,71.8,70.0,30.20,South,177,0.0,0.0,95,0.00,,,0.00,weatherlink.com 1.10,2013-09-10 13:26:00,
2013-09-10 09:41:00,73.3,70.0,30.20,South,177,0.0,1.0,88,0.00,,,0.00,weatherlink.com 1.10,2013-09-10 13:41:00,
2013-09-10 09:56:00,74.9,69.0,30.20,South,177,0.0,1.0,83,0.00,,,0.00,weatherlink.com 1.10,2013-09-10 13:56:00,
2013-09-10 10:11:00,76.7,70.0,30.20,South,177,0.0,2.0,80,0.00,,,0.00,weatherlink.com 1.10,2013-09-10 14:11:00,
2013-09-10 10:26:00,77.7,70.0,30.20,East,94,0.0,1.0,76,0.00,,,0.00,weatherlink.com 1.10,2013-09-10 14:26:00,
2013-09-10 10:41:00,78.8,69.0,30.20,SE,138,0.0,1.0,73,0.00,,,0.00,weatherlink.com 1.10,2013-09-10 14:41:00,
2013-09-10 10:56:00,79.9,69.0,30.20,SE,138,0.0,0.0,69,0.00,,,0.00,weatherlink.com 1.10,2013-09-10 14:56:00,
2013-09-10 11:11:00,81.1,68.0,30.19,WSW,257,0.0,2.0,64,0.00,,,0.00,weatherlink.com 1.10,2013-09-10 15:11:00,
2013-09-10 11:26:00,82.0,67.0,30.19,ESE,117,0.0,2.0,60,0.00,,,0.00,weatherlink.com 1.10,2013-09-10 15:26:00,
2013-09-10 11:41:00,82.6,67.0,30.19,SE,144,0.0,2.0,60,0.00,,,0.00,weatherlink.com 1.10,2013-09-10 15:41:00,
2013-09-10 11:56:00,83.6,67.0,30.20,South,175,0.0,2.0,57,0.00,,,0.00,weatherlink.com 1.10,2013-09-10 15:56:00,
2013-09-10 12:11:00,83.6,67.0,30.20,ESE,107,0.0,2.0,57,0.00,,,0.00,weatherlink.com 1.10,2013-09-10 16:11:00,
2013-09-10 12:26:00,83.8,67.0,30.19,SSE,149,0.0,4.0,57,0.00,,,0.00,weatherlink.com 1.10,2013-09-10 16:26:00,
2013-09-10 12:41:00,85.5,67.0,30.19,SSW,213,0.0,3.0,54,0.00,,,0.00,weatherlink.com 1.10,2013-09-10 16:41:00,
2013-09-10 12:56:00,85.9,68.0,30.18,WSW,240,0.0,1.0,55,0.00,,,0.00,weatherlink.com 1.10,2013-09-10 16:56:00,
2013-09-10 13:11:00,86.5,66.0,30.18,West,277,1.0,3.0,51,0.00,,,0.00,weatherlink.com 1.10,2013-09-10 17:11:00,
2013-09-10 13:26:00,88.2,66.0,30.18,South,184,0.0,1.0,48,0.00,,,0.00,weatherlink.com 1.10,2013-09-10 17:26:00,
2013-09-10 13:41:00,88.4,67.0,30.17,SW,233,0.0,1.0,50,0.00,,,0.00,weatherlink.com 1.10,2013-09-10 17:41:00,
2013-09-10 13:56:00,88.6,67.0,30.17,South,184,0.0,3.0,49,0.00,,,0.00,weatherlink.com 1.10,2013-09-10 17:56:00,
2013-09-10 14:11:00,89.0,66.0,30.17,WSW,241,0.0,2.0,47,0.00,,,0.00,weatherlink.com 1.10,2013-09-10 18:11:00,
2013-09-10 14:26:00,89.0,67.0,30.16,SSE,150,0.0,4.0,48,0.00,,,0.00,weatherlink.com 1.10,2013-09-10 18:26:00,
2013-09-10 14:41:00,89.0,66.0,30.16,SE,126,0.0,3.0,47,0.00,,,0.00,weatherlink.com 1.10,2013-09-10 18:41:00,
2013-09-10 14:56:00,88.6,67.0,30.16,ESE,115,0.0,2.0,49,0.00,,,0.00,weatherlink.com 1.10,2013-09-10 18:56:00,
2013-09-10 15:11:00,89.7,67.0,30.15,WSW,244,0.0,3.0,48,0.00,,,0.00,weatherlink.com 1.10,2013-09-10 19:11:00,
2013-09-10 15:26:00,89.3,67.0,30.14,SSW,192,0.0,2.0,48,0.00,,,0.00,weatherlink.com 1.10,2013-09-10 19:26:00,
2013-09-10 15:41:00,89.0,66.0,30.14,South,171,1.0,4.0,47,0.00,,,0.00,weatherlink.com 1.10,2013-09-10 19:41:00,
2013-09-10 15:56:00,88.4,66.0,30.13,SW,218,0.0,3.0,48,0.00,,,0.00,weatherlink.com 1.10,2013-09-10 19:56:00,
2013-09-10 16:11:00,87.8,66.0,30.13,SW,226,0.0,1.0,49,0.00,,,0.00,weatherlink.com 1.10,2013-09-10 20:11:00,
2013-09-10 16:26:00,86.3,67.0,30.13,SW,226,0.0,1.0,52,0.00,,,0.00,weatherlink.com 1.10,2013-09-10 20:26:00,
2013-09-10 16:41:00,85.7,67.0,30.12,WSW,238,0.0,3.0,54,0.00,,,0.00,weatherlink.com 1.10,2013-09-10 20:41:00,
2013-09-10 16:56:00,86.1,66.0,30.12,SE,139,0.0,1.0,51,0.00,,,0.00,weatherlink.com 1.10,2013-09-10 20:56:00,
2013-09-10 17:11:00,86.5,65.0,30.12,SE,142,0.0,2.0,49,0.00,,,0.00,weatherlink.com 1.10,2013-09-10 21:11:00,
2013-09-10 17:26:00,85.9,66.0,30.11,SE,142,0.0,1.0,52,0.00,,,0.00,weatherlink.com 1.10,2013-09-10 21:26:00,
2013-09-10 17:41:00,85.9,66.0,30.11,SE,140,0.0,1.0,51,0.00,,,0.00,weatherlink.com 1.10,2013-09-10 21:41:00,
2013-09-10 17:56:00,85.9,66.0,30.11,SE,134,0.0,1.0,52,0.00,,,0.00,weatherlink.com 1.10,2013-09-10 21:56:00,
2013-09-10 18:11:00,85.7,65.0,30.11,SE,130,0.0,1.0,51,0.00,,,0.00,weatherlink.com 1.10,2013-09-10 22:11:00,
2013-09-10 18:27:00,85.5,65.0,30.11,East,94,0.0,1.0,51,0.00,,,0.00,weatherlink.com 1.10,2013-09-10 22:27:00,
2013-09-10 18:42:00,84.7,67.0,30.11,East,94,0.0,0.0,55,0.00,,,0.00,weatherlink.com 1.10,2013-09-10 22:42:00,
2013-09-10 18:57:00,83.8,67.0,30.11,East,94,0.0,0.0,58,0.00,,,0.00,weatherlink.com 1.10,2013-09-10 22:57:00,
2013-09-10 19:12:00,82.8,67.0,30.11,East,94,0.0,0.0,60,0.00,,,0.00,weatherlink.com 1.10,2013-09-10 23:12:00,
2013-09-10 19:27:00,81.6,68.0,30.11,East,94,0.0,0.0,63,0.00,,,0.00,weatherlink.com 1.10,2013-09-10 23:27:00,
2013-09-10 19:42:00,80.5,67.0,30.11,East,94,0.0,0.0,64,0.00,,,0.00,weatherlink.com 1.10,2013-09-10 23:42:00,
2013-09-10 19:57:00,79.4,67.0,30.12,East,94,0.0,0.0,66,0.00,,,0.00,weatherlink.com 1.10,2013-09-10 23:57:00,
2013-09-10 20:12:00,78.3,68.0,30.12,East,94,0.0,0.0,70,0.00,,,0.00,weatherlink.com 1.10,2013-09-11 00:12:00,
2013-09-10 20:27:00,77.2,68.0,30.14,East,94,0.0,0.0,72,0.00,,,0.00,weatherlink.com 1.10,2013-09-11 00:27:00,
2013-09-10 20:42:00,76.3,68.0,30.14,East,94,0.0,0.0,75,0.00,,,0.00,weatherlink.com 1.10,2013-09-11 00:42:00,
2013-09-10 20:57:00,75.8,68.0,30.16,East,94,0.0,0.0,77,0.00,,,0.00,weatherlink.com 1.10,2013-09-11 00:57:00,
2013-09-10 21:27:00,74.7,68.0,30.17,East,94,0.0,0.0,80,0.00,,,0.00,weatherlink.com 1.10,2013-09-11 01:27:00,
2013-09-10 21:42:00,74.2,68.0,30.17,East,94,0.0,0.0,81,0.00,,,0.00,weatherlink.com 1.10,2013-09-11 01:42:00,
2013-09-10 21:57:00,73.9,69.0,30.17,East,94,0.0,0.0,83,0.00,,,0.00,weatherlink.com 1.10,2013-09-11 01:57:00,
2013-09-10 22:12:00,73.3,68.0,30.17,East,94,0.0,0.0,84,0.00,,,0.00,weatherlink.com 1.10,2013-09-11 02:12:00,
2013-09-10 22:27:00,72.8,68.0,30.18,East,94,0.0,0.0,84,0.00,,,0.00,weatherlink.com 1.10,2013-09-11 02:27:00,
2013-09-10 22:42:00,72.5,67.0,30.18,East,94,0.0,0.0,84,0.00,,,0.00,weatherlink.com 1.10,2013-09-11 02:42:00,
2013-09-10 22:57:00,72.3,68.0,30.19,East,94,0.0,0.0,85,0.00,,,0.00,weatherlink.com 1.10,2013-09-11 02:57:00,
2013-09-10 23:12:00,72.0,68.0,30.18,East,94,0.0,0.0,86,0.00,,,0.00,weatherlink.com 1.10,2013-09-11 03:12:00,
2013-09-10 23:27:00,71.6,68.0,30.18,East,94,0.0,0.0,87,0.00,,,0.00,weatherlink.com 1.10,2013-09-11 03:27:00,
2013-09-10 23:42:00,71.1,67.0,30.18,East,94,0.0,0.0,88,0.00,,,0.00,weatherlink.com 1.10,2013-09-11 03:42:00,
2013-09-10 23:57:00,70.9,68.0,30.18,East,94,0.0,0.0,89,0.00,,,0.00,weatherlink.com 1.10,2013-09-11 03:57:00,